Wind_Speed
36 36 35 32 30 29 27 25 25 25 25 25 25 25 24 22 20 18 16 14 12 9 7 6 5 5 4 4 4 5 7 8 10 12 13 15 17 19 21 23 25 26 27 28 30 31 32 34 35 36 36 37 37 37 38 38 38 38 39 39 40 41 42 42 43 41 36 37 39 39 40 41 40 39 39 36 35 34 33 33 34 35 36 38 40
37 37 35 33 30 29 27 25 24 24 24 24 24 24 24 22 20 18 16 14 12 9 8 7 6 5 4 4 4 5 6 8 10 11 13 15 17 20 22 23 25 26 27 28 29 31 32 33 35 36 37 37 38 38 38 38 39 39 39 40 40 41 42 43 44 44 41 38 39 40 39 40 41 40 39 38 36 35 33 32 32 34 34 36 38
38 37 35 32 30 28 26 25 24 24 24 24 23 23 23 21 19 18 16 14 12 10 8 7 6 5 4 4 4 4 6 7 9 11 13 15 18 20 22 23 25 26 27 28 29 31 32 33 33 35 36 37 38 38 39 39 39 39 40 40 40 40 41 42 43 45 44 41 40 41 41 40 41 42 41 39 37 36 35 33 32 32 33 35 36
39 38 35 32 30 28 26 24 24 24 24 23 23 23 22 21 19 18 16 15 13 10 9 8 7 5 5 4 4 4 6 7 9 11 13 15 18 19 21 23 24 26 27 28 29 30 31 32 33 34 35 36 37 38 39 40 40 40 40 40 40 40 41 42 43 44 45 44 42 42 42 41 41 41 42 41 39 37 36 35 34 32 31 33 35
40 38 35 32 30 27 26 24 24 24 23 23 22 22 22 20 19 18 17 15 13 11 9 8 7 6 5 5 5 5 6 7 9 11 13 15 17 19 21 22 24 25 27 28 29 30 31 32 33 34 34 35 37 38 38 39 40 40 40 40 40 41 41 42 43 44 45 45 44 43 42 42 42 41 42 43 41 40 37 35 35 34 32 32 34
40 38 35 32 30 27 25 24 23 24 23 22 21 21 21 20 19 18 17 16 14 12 10 9 8 7 6 6 5 5 6 7 9 11 13 15 17 19 21 23 24 25 27 28 30 31 31 32 33 34 35 35 36 37 38 38 39 40 40 40 40 41 42 42 43 44 44 45 45 45 44 44 44 43 42 43 43 43 41 38 35 35 35 35 35
40 37 35 32 29 27 25 24 24 24 23 22 21 21 20 20 20 19 18 16 14 12 11 10 9 9 7 7 6 6 7 8 9 11 14 16 17 20 21 23 25 26 28 29 30 32 32 33 34 34 35 36 36 38 38 38 39 39 40 41 41 41 42 43 44 45 45 45 45 46 46 45 45 44 44 44 43 43 44 43 39 36 36 37 38
39 36 34 31 29 27 25 24 24 23 23 21 21 20 20 20 20 19 18 17 15 13 12 11 10 10 9 8 7 7 7 9 10 12 14 16 18 20 21 23 25 27 28 30 31 32 33 34 34 35 35 36 36 37 38 38 38 38 40 41 42 42 42 43 45 45 46 46 47 47 47 47 47 46 45 45 44 44 44 45 44 42 38 37 38
38 36 34 31 28 27 25 24 24 23 23 21 20 20 20 20 20 19 19 18 16 14 13 12 12 11 10 9 8 8 8 9 11 12 14 16 18 20 21 23 25 26 28 29 31 33 34 35 35 35 35 36 36 36 37 37 38 38 39 41 42 43 43 43 44 46 47 47 48 48 48 47 48 48 48 47 47 46 45 45 45 45 43 39 37
37 36 33 30 29 27 25 25 24 24 22 21 20 20 20 20 20 20 20 19 17 16 14 13 13 12 11 10 9 9 9 10 11 13 15 16 18 20 21 22 24 26 27 28 30 32 34 35 36 36 36 35 35 36 36 36 37 37 38 40 42 43 44 44 44 45 46 47 48 50 50 48 48 50 50 49 48 47 47 46 45 45 45 43 39
37 35 32 30 29 27 26 25 24 23 22 20 20 20 19 20 20 21 21 20 18 17 15 14 14 13 12 11 10 10 10 11 12 14 15 17 18 20 22 23 24 25 27 28 29 30 32 34 36 37 36 36 35 35 35 35 36 36 37 39 41 42 43 44 44 45 46 47 48 49 51 51 49 50 51 51 50 49 48 47 46 45 46 47 44
36 34 32 30 29 27 26 25 24 23 21 20 19 19 19 20 21 21 22 21 19 18 16 15 15 14 13 12 11 11 11 11 12 14 16 17 19 20 22 23 24 25 27 28 29 30 31 33 35 36 37 37 36 35 35 35 35 35 36 37 39 41 42 42 43 44 46 47 48 48 51 52 51 50 52 52 52 51 49 48 48 47 46 47 47
36 33 32 31 29 27 26 26 24 22 21 19 19 19 19 20 21 22 23 22 20 19 17 16 16 15 14 13 12 11 11 11 12 14 15 17 19 21 22 23 25 26 27 29 30 31 32 33 34 36 37 38 38 37 36 35 35 35 35 36 38 39 40 41 41 43 44 46 48 48 49 51 51 51 51 52 52 53 52 52 52 51 49 47 47
35 33 32 30 29 28 27 25 23 22 20 19 19 18 19 20 22 23 24 23 22 20 19 17 16 16 14 13 13 12 12 12 13 14 16 17 19 21 22 24 25 27 29 30 32 33 34 35 36 37 38 39 40 40 39 37 36 35 35 36 37 38 39 39 40 41 42 44 46 47 47 49 50 51 51 52 53 54 55 55 54 54 52 48 46
34 33 32 30 30 29 27 25 23 21 20 20 19 18 19 21 22 24 24 24 23 21 20 19 17 16 15 14 13 12 12 12 13 14 16 18 19 21 22 24 26 28 30 31 33 35 37 37 38 38 39 40 41 42 41 40 38 37 36 37 37 38 38 39 39 40 41 43 45 46 47 49 50 51 52 53 54 54 54 54 54 54 53 50 47
34 33 32 30 30 29 27 25 23 21 20 19 18 18 19 21 23 25 26 25 24 23 21 20 18 17 16 14 13 12 12 13 14 15 16 18 20 21 22 24 26 28 30 32 34 36 38 39 39 39 40 41 42 43 43 42 41 40 39 39 39 39 38 38 38 39 40 42 44 45 47 48 49 51 52 53 53 53 53 53 53 53 53 52 49
34 32 30 30 29 28 27 25 23 21 20 19 18 18 19 22 24 26 27 26 25 24 23 21 19 18 16 15 13 13 13 13 14 15 17 18 20 21 22 23 25 27 30 32 34 36 38 39 40 40 40 40 41 42 44 43 43 43 42 41 41 40 40 39 38 38 39 41 42 43 45 46 48 49 50 51 52 52 52 52 52 52 52 52 51
32 31 29 29 29 28 27 25 23 21 20 18 18 18 20 23 25 27 28 27 27 26 24 22 20 19 17 15 14 13 13 14 15 16 17 18 19 20 21 22 25 27 28 31 33 35 37 39 40 40 40 40 41 42 44 44 44 44 45 44 43 43 42 41 41 40 40 41 41 43 44 45 47 47 48 49 50 51 51 51 51 51 51 51 52
29 28 28 29 29 28 28 26 23 21 19 18 18 19 21 24 26 28 29 29 28 27 25 23 22 20 17 16 15 14 14 15 16 17 18 19 19 20 21 22 24 26 28 29 31 34 36 38 39 40 40 40 41 42 44 45 45 46 46 46 46 45 44 44 44 44 44 44 45 45 45 46 47 47 47 48 49 49 50 50 50 51 51 50 51
27 27 29 30 29 29 29 26 22 20 19 18 19 20 23 25 27 29 30 30 29 27 26 25 23 20 18 17 15 15 15 16 16 17 18 19 19 20 21 22 23 25 27 29 31 32 35 37 38 39 40 40 41 42 43 45 45 46 47 48 47 47 46 45 46 46 47 47 48 48 48 48 49 49 49 49 49 48 49 49 49 50 50 50 49
29 30 31 31 31 31 29 26 22 20 20 19 19 21 24 26 28 29 30 30 30 29 27 26 23 21 20 18 17 16 16 17 17 18 19 20 20 20 21 22 23 25 27 29 31 32 34 36 37 39 39 40 41 42 43 44 44 45 47 47 47 47 47 47 47 47 48 49 49 50 51 51 50 50 50 49 48 48 48 48 48 49 49 49 49
32 33 33 33 32 31 28 25 23 21 20 20 20 21 24 26 28 30 31 31 31 30 29 27 25 22 21 19 18 17 18 18 18 18 19 20 21 21 21 23 24 25 27 29 31 33 34 36 37 38 39 39 40 41 42 43 43 44 45 47 47 47 47 47 47 48 48 49 50 51 51 52 51 51 50 49 49 48 47 47 47 47 47 47 47
34 35 35 34 32 30 28 25 23 22 21 20 20 21 24 27 29 30 31 31 31 31 29 28 26 24 22 20 19 19 19 19 19 19 20 21 22 22 22 24 25 26 28 30 32 33 35 36 38 39 39 40 40 41 42 42 43 44 45 46 47 47 47 47 48 48 49 50 50 51 51 52 52 52 51 50 49 48 47 46 45 44 44 44 45
36 36 35 33 31 29 27 25 24 22 21 20 21 22 25 28 29 30 31 32 32 31 30 29 27 25 23 21 21 20 20 21 20 20 21 22 23 23 23 25 26 27 29 31 33 35 36 37 38 39 40 40 40 40 41 42 43 44 45 47 47 48 48 48 48 49 50 50 51 51 52 52 52 52 52 51 50 48 47 45 44 43 42 42 42
37 36 34 32 30 28 27 25 24 22 21 21 21 23 25 28 29 30 31 32 32 32 31 29 27 25 24 23 22 21 21 22 21 20 21 23 24 24 24 26 27 28 30 32 34 35 37 38 39 40 40 40 40 40 40 41 42 44 45 47 47 48 48 49 49 50 50 51 51 52 52 52 52 52 52 51 50 48 47 45 44 43 41 40 40
36 34 32 30 29 27 26 25 24 22 21 22 22 24 27 29 29 30 31 32 32 32 31 30 28 26 25 24 23 22 22 22 21 21 22 24 24 25 25 27 28 29 31 33 34 36 37 38 39 40 41 41 41 41 41 41 41 43 45 46 47 48 48 49 49 50 51 51 52 52 52 52 52 51 51 51 50 48 47 46 44 43 41 39 38
34 32 30 29 28 27 25 25 24 22 21 22 22 24 27 29 30 30 31 32 32 32 31 30 29 27 26 25 24 23 23 23 22 21 22 24 25 25 26 28 29 30 32 33 35 36 37 38 40 41 41 40 40 40 40 40 41 42 45 46 47 48 48 48 49 49 50 51 52 52 52 52 51 51 50 50 49 48 47 46 44 43 42 40 38
32 31 30 29 27 26 25 25 24 22 22 22 23 25 27 28 28 28 30 31 32 32 32 31 30 28 27 26 25 25 24 23 22 22 23 25 25 26 27 28 30 31 32 34 35 36 37 38 39 41 41 40 40 40 40 39 40 41 43 46 46 47 47 48 48 49 50 51 52 52 52 51 51 50 50 49 48 47 46 45 44 43 42 41 40
31 30 30 29 27 26 26 25 24 22 22 22 23 25 27 28 28 29 31 32 33 33 32 31 30 28 27 26 26 26 25 24 23 23 24 25 26 26 27 29 30 31 33 34 35 36 37 38 39 41 41 41 41 41 40 40 40 41 43 45 46 47 47 47 48 49 50 51 52 52 52 52 51 51 50 48 47 47 46 45 43 42 41 40 40
30 30 29 27 26 25 25 25 23 22 22 22 23 25 27 28 29 30 32 33 34 33 31 30 29 28 27 26 26 25 25 24 24 24 25 26 27 27 28 29 31 32 33 34 36 37 38 39 40 41 42 42 42 42 42 42 43 44 45 46 47 47 48 48 49 50 51 52 52 52 52 52 51 51 50 48 47 46 45 44 43 42 41 40 39
28 28 26 25 24 25 25 24 23 22 22 23 24 26 27 28 29 31 32 33 33 32 30 30 29 28 27 26 25 25 25 25 24 25 26 27 27 27 28 30 31 33 34 35 36 38 39 40 41 42 43 43 43 43 43 44 45 46 47 47 47 48 49 49 50 51 52 52 52 52 52 52 51 50 49 48 47 46 45 44 43 42 41 41 39
27 25 24 23 24 25 25 24 23 22 22 23 24 25 27 28 29 30 31 32 31 31 30 30 29 27 27 26 25 25 24 24 24 25 26 27 28 28 29 30 32 33 34 35 37 38 39 41 42 43 44 44 44 44 44 45 46 47 48 48 48 48 49 50 51 51 52 52 52 52 52 51 51 50 49 48 47 46 45 44 43 42 41 40 39
25 24 24 25 26 27 27 24 23 22 22 23 23 24 26 27 28 30 31 31 31 31 31 31 29 28 27 26 25 25 24 24 24 25 27 28 28 27 28 30 32 33 34 36 37 38 40 42 43 44 45 45 45 44 44 45 47 48 48 48 48 49 50 50 51 51 51 52 52 51 51 51 50 49 48 47 46 46 45 44 44 43 42 41 39
25 25 26 27 28 29 27 24 22 21 22 22 23 24 25 27 29 30 31 31 31 31 31 30 29 28 27 26 25 25 24 24 25 26 27 28 28 27 28 30 32 33 34 36 37 39 40 42 44 45 45 45 45 45 45 46 47 48 49 49 49 49 50 51 51 51 51 51 51 51 51 50 50 49 48 46 46 45 45 44 44 43 43 41 40
28 28 29 30 31 30 28 25 22 22 22 22 23 24 26 28 30 31 31 31 30 31 32 31 30 28 27 26 25 25 24 24 25 26 28 28 28 27 28 29 31 32 34 36 37 39 41 43 44 45 45 45 45 45 45 46 48 49 49 49 49 50 51 51 51 51 51 51 51 50 50 50 49 48 47 46 45 44 44 44 44 43 43 42 40
30 31 32 32 31 30 28 25 22 22 22 22 24 25 27 30 31 32 32 31 31 32 32 32 31 29 27 26 25 25 24 24 25 26 28 28 27 28 29 30 31 32 34 36 38 39 41 43 44 45 46 45 45 46 46 47 49 49 49 49 50 51 51 52 52 51 51 50 50 49 49 49 48 48 46 45 45 44 44 44 43 43 42 42 40
31 31 31 31 30 29 27 24 22 22 22 23 24 26 29 31 32 32 32 32 32 32 32 32 31 29 27 26 26 25 24 24 25 27 28 28 27 28 29 30 31 32 34 36 38 39 41 43 45 45 46 46 45 46 47 48 49 49 49 49 50 51 51 51 51 51 50 50 49 49 48 48 47 47 46 45 44 44 44 43 43 42 41 41 40
31 31 30 30 30 29 27 24 23 22 22 23 24 26 28 30 32 32 32 32 32 32 32 32 31 29 28 27 26 25 23 24 25 27 27 27 27 28 29 30 32 33 34 36 38 40 42 43 45 45 46 46 46 46 48 49 49 49 50 50 50 51 51 51 51 51 50 50 49 48 48 47 47 46 46 45 44 44 43 43 43 42 41 40 39
31 31 31 32 32 30 28 26 24 23 22 23 24 25 27 29 31 32 32 31 31 32 32 32 31 29 28 28 26 24 23 24 25 26 27 27 28 29 30 31 32 34 35 37 39 40 42 44 45 46 46 46 46 47 49 49 50 50 50 51 51 51 52 52 51 51 50 49 49 48 47 47 46 45 45 45 45 44 43 43 42 42 41 39 38
29 30 31 32 32 30 29 27 24 22 22 23 24 24 25 27 29 30 31 31 31 32 33 32 31 30 29 28 26 24 23 24 25 26 26 27 28 29 31 32 33 34 36 37 39 41 43 44 45 46 46 46 47 48 49 50 50 50 51 52 52 52 52 52 51 51 50 49 48 48 47 46 45 45 45 45 45 44 44 43 42 41 40 38 37
27 28 29 30 30 30 30 27 23 21 22 23 23 23 23 25 27 29 31 31 32 32 33 32 31 30 30 28 26 24 24 24 25 25 25 26 27 29 30 32 33 35 36 38 39 41 43 44 45 46 46 46 47 49 50 50 50 51 51 52 52 52 52 52 52 51 50 49 48 47 46 45 45 45 45 45 45 44 44 42 41 40 38 37 35
27 28 29 30 30 30 29 26 22 21 23 24 23 22 22 24 27 29 30 31 32 32 32 31 31 31 29 27 25 24 23 24 24 24 24 25 26 28 30 32 33 35 36 38 40 42 44 45 45 45 45 46 48 50 50 51 51 52 52 52 52 53 53 53 52 52 50 49 47 46 45 44 44 44 45 45 44 44 43 42 40 39 37 35 33
29 29 30 30 30 29 28 26 24 23 23 23 22 22 22 23 26 29 30 31 32 32 31 31 31 30 29 26 25 23 23 23 23 23 23 24 26 28 30 31 33 35 36 38 40 43 44 45 45 44 45 47 49 50 50 51 52 52 53 53 53 53 53 53 53 52 50 49 47 46 45 44 44 44 44 45 44 44 43 41 39 37 36 34 32
30 30 30 30 30 29 29 27 26 25 25 24 24 24 23 24 26 29 30 31 30 30 30 31 31 30 28 26 24 23 23 23 22 22 23 24 26 27 29 31 33 34 36 38 41 43 44 45 44 44 45 47 49 49 50 51 52 53 53 53 53 54 54 54 53 52 50 49 47 45 45 44 44 44 45 44 44 43 42 40 38 36 34 32 29
30 30 30 30 29 29 28 26 26 26 27 26 25 23 23 24 26 28 30 30 29 30 30 31 30 28 26 25 24 23 22 22 22 22 23 24 26 27 29 31 33 34 36 38 41 43 44 44 44 44 45 47 49 49 50 51 52 52 53 53 54 54 54 54 52 51 49 48 47 46 45 44 44 45 45 44 44 42 40 39 37 35 33 31 27
27 28 28 29 29 28 26 25 26 27 27 25 23 22 22 23 25 27 29 29 29 30 30 30 29 27 25 24 23 23 22 22 21 22 23 24 26 28 29 31 33 34 36 38 41 43 43 44 44 45 46 48 48 49 50 51 52 52 53 53 54 54 54 53 52 50 49 48 47 46 46 45 45 44 44 43 42 41 39 37 35 33 31 29 25
25 27 28 29 30 28 26 26 27 27 26 24 22 21 22 23 24 27 28 29 29 30 30 29 27 26 25 24 23 22 22 21 21 22 23 25 26 28 30 31 33 34 36 38 41 42 43 43 44 45 47 48 48 48 50 51 51 52 52 53 54 54 53 52 51 49 48 48 47 46 46 45 45 44 43 42 40 38 36 35 33 31 29 27 23
24 26 28 29 29 28 26 26 27 27 24 23 21 21 21 22 24 26 28 29 29 29 29 27 26 25 24 23 23 22 21 21 21 22 23 25 27 29 30 31 33 34 36 38 40 41 42 42 44 45 47 47 48 49 50 51 51 51 52 53 54 53 52 51 49 49 48 48 47 47 46 45 44 43 42 40 38 36 34 33 31 29 27 24 20
23 25 26 27 28 27 26 27 27 25 23 22 21 19 20 21 23 25 28 28 28 28 28 26 25 24 24 23 22 21 21 21 21 22 24 26 27 29 30 31 32 34 36 38 39 40 41 42 44 45 46 47 48 49 50 50 50 51 52 53 53 52 51 49 49 48 48 48 47 47 46 45 43 41 39 38 36 34 32 30 29 27 24 21 16
23 23 25 26 26 26 26 28 27 25 23 22 20 18 18 20 22 25 27 27 28 28 27 26 25 24 23 22 22 21 21 20 21 23 25 26 28 29 30 31 32 34 36 38 39 39 40 42 44 45 45 46 48 49 50 50 50 51 53 53 52 51 49 48 48 48 47 47 46 46 45 43 41 40 38 36 33 31 30 28 26 24 21 17 13
22 23 24 25 26 27 28 28 27 25 23 21 17 16 17 19 21 25 27 27 27 27 27 25 24 23 22 22 21 21 20 20 21 23 25 26 28 29 30 31 32 34 36 37 37 38 40 42 43 44 45 46 47 49 49 49 50 51 53 53 51 50 48 48 47 47 46 46 45 44 43 42 40 38 36 33 31 29 27 26 24 22 18 14 11
Wind_Direction
260 264 267 270 274 277 280 283 289 296 303 308 312 312 310 306 300 294 289 284 280 277 278 280 278 283 304 326 341 352 356 357 356 355 355 356 358 359 358 357 356 354 352 351 350 350 350 350 349 348 348 347 346 346 346 346 347 347 347 348 347 346 346 346 345 350 355 350 346 346 344 343 343 342 343 344 344 342 338 332 329 328 326 324 324
260 263 266 269 273 275 277 280 286 294 300 306 309 309 308 304 297 290 285 279 273 269 270 271 269 274 294 315 332 345 349 352 351 350 351 353 355 356 355 354 353 351 349 348 348 348 349 348 348 347 346 345 345 345 345 345 346 346 346 346 347 346 345 346 345 346 351 351 347 346 345 343 342 341 342 343 344 343 342 338 334 331 328 324 323
258 262 264 268 271 273 274 277 284 291 297 303 306 307 306 301 293 286 280 274 268 263 263 263 261 266 283 302 319 334 341 344 345 345 348 350 353 353 352 350 349 347 346 346 346 347 347 347 347 346 345 344 344 344 344 344 344 345 346 345 346 346 345 345 345 343 346 349 348 345 345 344 342 341 340 342 342 342 343 343 339 335 331 326 324
257 260 263 266 268 270 272 275 282 289 295 301 304 305 304 297 289 283 276 269 263 258 257 255 255 259 269 286 303 319 331 336 339 341 344 347 350 350 348 348 346 344 343 343 344 345 345 346 345 345 345 343 343 343 342 343 343 344 344 345 345 346 345 344 344 343 343 346 347 345 344 343 342 340 339 340 341 341 342 343 341 339 336 331 326
255 258 261 264 266 268 269 273 280 286 292 298 301 302 300 293 285 279 272 265 258 253 252 251 250 252 259 272 288 305 320 328 331 335 340 344 346 346 345 345 344 342 341 341 342 344 344 345 345 345 345 343 342 342 342 341 342 342 343 344 344 345 345 345 344 343 343 343 345 345 343 342 342 341 339 339 340 340 340 343 342 341 340 336 329
254 256 259 261 264 265 266 271 278 284 290 296 298 299 297 289 281 275 267 260 253 248 247 248 246 247 252 263 277 295 309 319 325 330 336 340 342 343 343 343 342 341 340 340 341 343 344 344 345 345 344 344 342 341 341 341 341 341 342 343 343 344 345 345 343 343 343 343 343 344 344 343 342 341 340 339 339 339 338 341 343 342 341 339 334
252 255 257 259 261 263 264 268 275 281 288 293 296 296 293 285 277 270 262 255 248 243 243 244 243 243 248 257 270 287 299 311 319 325 332 337 339 341 342 342 342 340 340 340 341 342 343 343 344 345 344 344 343 341 340 340 340 340 341 341 342 344 344 344 343 343 343 343 343 343 344 344 342 341 341 340 340 339 338 338 341 342 342 341 337
250 253 255 257 259 260 261 267 274 280 285 290 293 293 289 282 273 265 258 251 243 239 239 241 240 241 246 253 264 279 292 305 314 322 329 335 338 340 341 341 340 339 339 340 341 341 342 343 343 344 344 343 342 341 339 339 340 340 340 340 341 343 344 344 343 342 342 343 343 343 344 344 342 341 341 340 340 340 339 338 338 339 341 342 339
248 251 253 255 257 257 259 265 272 278 283 288 291 290 286 278 269 261 253 246 239 236 236 238 239 239 244 251 260 273 288 301 311 319 327 332 336 338 340 340 338 338 338 339 341 341 341 341 342 342 342 342 341 340 338 338 339 340 340 340 341 342 343 344 343 342 342 342 342 342 342 343 342 340 340 341 341 341 340 338 337 336 337 339 340
246 249 251 252 254 254 256 264 271 276 281 286 289 288 283 275 265 256 249 242 236 233 233 235 237 238 242 248 257 271 285 297 308 317 325 330 334 337 339 339 337 337 337 338 340 341 341 340 340 340 340 341 340 339 338 337 338 339 340 340 341 341 342 343 342 341 341 342 342 341 340 342 342 340 339 340 341 340 340 338 337 336 335 336 339
245 247 249 250 252 252 255 262 270 276 281 286 288 286 280 271 262 252 245 239 233 231 231 234 236 237 241 247 256 269 282 295 307 318 325 329 334 336 337 337 336 335 336 338 340 341 341 339 338 338 338 339 339 338 338 337 337 339 340 340 340 340 341 341 341 341 340 341 342 340 339 340 342 340 338 339 339 339 339 337 336 337 337 337 338
243 245 246 248 249 250 254 261 269 275 281 286 287 283 277 268 259 249 241 235 231 229 230 233 235 237 241 246 256 267 281 295 307 317 324 328 332 335 335 334 334 334 335 337 339 340 341 339 337 337 337 337 338 338 338 338 337 338 340 340 340 339 340 340 340 340 340 340 341 340 338 338 340 340 338 337 337 336 337 337 337 338 339 338 337
242 243 245 246 247 249 253 260 268 275 280 285 285 281 273 265 255 245 238 233 229 228 229 232 234 237 241 247 255 267 280 294 306 315 322 326 329 332 333 332 333 334 335 337 339 340 341 340 338 338 337 336 337 337 337 337 337 338 339 339 339 338 338 339 339 339 339 338 339 339 338 337 338 338 337 335 335 335 336 338 337 337 339 338 336
240 241 243 244 246 248 252 258 266 274 280 284 285 279 270 261 251 242 236 232 228 226 228 231 234 237 241 247 256 268 280 293 305 314 320 325 328 330 332 332 333 334 335 338 339 340 340 340 340 339 337 336 336 336 336 337 337 338 339 339 339 338 337 338 338 338 338 337 337 337 337 336 336 336 335 334 335 336 336 337 336 335 336 336 335
237 239 240 242 245 248 252 257 264 273 281 285 285 277 266 257 249 240 234 230 227 225 227 230 234 237 242 248 256 268 281 293 304 313 318 324 327 329 331 332 333 334 335 338 339 339 339 340 340 339 337 336 335 335 335 336 336 337 338 338 338 337 337 337 338 338 337 336 336 336 336 336 335 335 336 335 336 336 335 335 334 332 332 333 333
235 237 239 241 244 247 250 255 263 273 282 285 283 275 263 254 245 237 232 228 226 225 227 230 234 237 242 248 257 269 281 292 303 311 317 322 326 329 331 332 333 334 335 337 338 338 338 338 339 338 337 335 334 333 334 335 335 336 337 339 338 337 337 337 337 337 337 336 336 336 336 336 335 336 336 335 334 334 333 333 331 330 330 330 331
235 236 238 241 243 245 248 253 262 274 282 284 282 272 259 250 242 235 230 227 225 225 227 230 234 237 242 250 258 270 281 292 301 309 315 321 325 328 330 331 333 334 334 336 336 336 336 336 337 337 336 334 333 333 333 334 334 335 337 338 338 337 337 337 337 337 337 336 335 335 335 335 335 335 335 334 333 332 331 330 329 328 329 329 329
234 235 237 239 240 242 246 252 261 273 281 282 278 267 254 246 239 233 228 225 223 225 227 230 234 238 243 250 259 270 281 291 300 307 314 319 323 325 328 330 331 333 333 333 334 333 333 334 335 335 334 334 333 333 333 333 334 335 336 338 338 337 336 336 337 337 337 336 335 335 335 336 335 335 334 333 331 330 329 329 328 328 328 328 328
232 234 235 236 238 241 245 250 259 271 279 279 273 262 251 243 237 231 226 224 224 225 228 230 234 239 244 250 259 269 280 290 298 306 312 317 320 322 325 328 330 331 331 331 332 331 331 332 333 333 333 333 333 333 333 333 334 335 336 336 336 336 336 336 336 336 336 336 336 336 336 336 335 334 333 332 330 330 329 328 328 327 328 328 327
227 230 231 232 235 239 242 248 258 269 277 276 269 258 248 241 236 230 226 224 224 225 228 231 234 239 244 251 259 269 279 288 296 303 309 314 317 319 321 325 328 329 330 330 330 329 329 330 331 332 333 333 333 333 333 333 334 335 335 335 335 335 335 335 335 335 335 335 335 335 336 335 335 334 333 332 331 330 329 328 328 328 328 327 327
222 225 227 229 234 238 241 247 256 265 274 274 266 256 247 241 236 230 226 224 224 225 228 230 233 239 245 251 260 270 279 287 294 301 306 311 314 315 317 321 326 329 329 329 329 328 328 329 331 331 332 333 333 333 332 333 333 333 333 333 334 333 333 334 333 333 333 334 334 335 335 335 334 334 333 332 332 331 330 330 329 329 328 328 327
221 223 225 229 234 238 242 247 254 263 273 275 268 256 247 240 235 230 226 224 224 225 228 230 234 239 245 252 261 269 278 286 292 298 304 307 310 312 314 318 324 327 328 328 327 327 328 329 331 332 332 333 333 332 332 332 332 331 332 332 333 332 332 332 332 331 332 333 334 334 334 334 333 333 333 332 332 332 332 331 330 330 329 328 328
223 223 225 229 234 238 241 246 252 261 273 276 266 253 244 239 235 231 227 225 225 226 228 231 235 239 245 252 260 268 277 285 291 297 301 304 306 308 311 316 321 325 327 327 326 326 328 330 331 332 332 333 333 332 332 331 330 330 331 332 332 332 331 331 330 331 331 332 333 333 333 333 333 332 332 332 333 333 333 332 331 330 330 329 328
224 224 226 230 234 237 240 245 251 260 271 274 263 250 241 236 234 230 227 225 225 226 229 231 235 240 245 252 260 268 277 284 289 295 299 301 304 306 310 313 317 321 324 325 326 327 328 330 331 332 333 333 333 332 331 330 329 330 331 332 332 331 330 330 330 330 331 332 333 333 333 333 332 333 333 333 333 333 333 332 332 331 331 330 329
225 225 226 230 234 236 240 246 250 258 268 270 261 249 239 235 233 230 227 226 226 227 229 232 236 240 246 252 260 268 276 282 287 292 297 299 302 305 307 310 313 318 322 324 325 326 328 330 331 333 333 332 331 330 330 329 329 330 331 331 331 330 329 329 330 331 331 332 332 332 332 332 333 333 333 333 333 333 333 333 333 332 332 331 330
223 224 227 230 233 235 240 246 250 257 266 266 257 245 236 233 231 229 227 226 226 227 230 233 236 241 246 253 260 267 273 279 284 289 293 296 300 302 304 307 311 316 320 323 324 326 328 329 331 332 331 331 330 330 329 329 330 330 331 330 330 330 329 330 330 331 332 332 332 332 332 333 333 333 333 333 333 334 334 334 333 333 332 331 330
220 222 226 229 232 235 242 247 249 256 264 263 254 242 235 232 231 229 226 225 226 228 230 233 237 241 246 253 260 266 270 275 280 286 290 293 297 300 302 305 310 315 319 321 322 324 327 329 330 330 330 330 329 329 329 329 329 330 330 330 330 330 330 330 331 331 331 331 331 332 332 333 333 333 334 334 334 334 334 334 334 333 332 331 330
218 221 225 228 231 237 243 246 249 255 261 258 250 241 236 234 233 231 228 226 226 228 231 233 237 241 246 252 259 265 269 274 279 284 289 293 297 299 301 305 310 314 318 320 321 323 326 328 329 329 329 329 328 328 328 328 329 330 330 330 330 330 330 330 331 332 331 331 331 331 332 333 333 333 334 334 334 334 334 334 334 333 333 332 330
218 221 224 228 231 237 242 245 249 255 257 253 245 237 233 231 230 228 226 226 226 228 230 233 237 241 246 252 258 263 268 273 279 284 288 293 296 299 302 306 310 314 317 318 320 322 325 327 327 327 328 328 329 329 329 328 329 330 331 331 331 330 331 331 332 332 331 331 331 332 333 333 333 334 334 335 335 334 334 334 334 333 333 332 330
221 222 224 228 233 239 244 246 250 254 254 250 243 235 231 229 227 225 224 225 226 228 230 234 238 241 246 251 257 263 268 274 279 284 288 293 297 300 303 306 309 313 316 318 320 322 324 326 327 327 328 329 329 330 330 329 330 332 333 333 332 331 332 332 332 332 332 332 332 333 333 333 333 334 334 334 334 334 334 334 334 334 333 332 331
224 224 226 230 236 241 244 245 248 251 251 247 241 235 231 230 229 227 226 226 227 229 230 233 237 241 246 251 256 262 268 274 280 284 289 294 298 301 304 306 309 313 316 318 320 322 323 326 327 328 328 329 330 330 330 330 331 333 334 333 333 332 333 333 333 333 333 333 332 333 333 333 333 333 333 333 334 334 334 334 334 334 333 332 331
223 224 226 230 236 241 242 242 245 248 248 246 242 236 234 233 231 229 228 228 228 228 230 233 237 241 245 251 256 261 267 272 279 284 289 294 297 301 304 307 310 314 317 319 320 321 323 326 327 328 329 329 330 330 330 331 332 333 334 333 333 333 333 333 333 333 333 333 332 333 333 332 332 333 333 333 333 334 334 334 334 334 333 332 332
223 223 226 230 236 239 239 240 244 248 248 246 244 240 237 236 234 232 230 229 228 228 229 233 237 241 245 251 256 262 267 272 278 283 288 292 297 301 304 307 311 314 317 318 319 321 324 326 327 328 329 329 330 330 331 331 332 333 333 333 333 333 333 333 333 333 333 333 332 332 332 332 332 332 332 333 333 334 334 334 333 333 333 332 332
222 223 226 230 235 237 237 237 242 245 246 246 245 241 238 235 233 232 231 230 229 228 230 233 237 240 244 250 256 262 269 274 279 284 288 292 297 301 304 307 311 314 316 317 319 321 324 326 327 328 328 329 329 330 330 331 332 332 333 333 333 334 334 333 333 333 333 333 332 332 332 332 331 331 332 332 333 333 333 333 333 332 332 332 332
222 223 226 230 233 234 233 233 236 239 242 245 245 241 237 234 233 232 231 230 228 228 229 232 235 239 244 249 255 262 268 274 280 284 289 293 297 301 304 308 311 313 315 317 319 322 325 326 327 328 328 329 330 330 330 331 331 332 333 333 334 334 334 333 333 333 333 332 332 331 331 331 331 330 331 332 332 333 332 332 332 331 331 331 331
225 226 229 232 235 235 234 233 235 237 241 244 244 240 235 234 234 234 232 230 228 227 229 232 235 239 244 249 255 261 268 274 280 285 289 293 297 301 304 307 310 313 316 318 320 323 325 326 327 328 328 329 329 330 330 331 331 332 333 334 334 334 333 333 333 333 333 332 332 331 331 331 330 330 330 331 332 332 332 331 331 330 330 330 330
229 230 233 235 236 235 234 233 233 236 240 243 243 241 237 234 234 234 233 231 229 229 230 232 235 239 243 248 255 262 269 275 281 285 289 293 297 301 304 307 311 315 318 319 321 324 326 327 327 328 328 329 329 329 330 330 332 333 333 334 334 334 333 333 333 333 332 332 331 331 331 330 330 329 329 330 331 331 331 330 330 329 329 329 330
231 231 232 234 234 233 231 230 231 235 240 244 246 246 243 239 236 235 233 232 231 230 230 232 235 239 243 249 256 263 271 276 281 285 290 294 296 300 303 308 314 318 320 321 322 325 326 328 328 328 328 328 328 329 330 331 332 333 334 334 334 334 333 333 333 332 332 331 331 331 331 330 329 329 329 329 330 330 330 330 329 329 328 328 329
232 231 230 231 232 231 228 227 230 235 240 244 247 249 247 244 241 237 234 232 231 230 231 233 235 239 244 250 256 264 271 276 281 285 289 293 296 300 306 311 316 319 321 322 323 325 327 328 328 328 328 328 328 329 330 331 333 334 334 334 334 334 333 333 332 332 332 332 331 331 330 329 329 328 328 328 329 330 330 329 329 328 328 328 329
235 234 233 233 234 233 230 228 231 236 239 241 244 246 247 246 243 239 235 232 231 231 232 233 235 240 245 250 257 263 269 275 280 284 288 292 297 303 308 313 318 320 321 322 324 326 327 328 328 328 328 328 328 330 331 332 333 334 334 334 334 334 333 332 332 331 331 332 331 331 330 329 328 327 327 327 328 329 329 329 329 328 328 328 329
234 234 234 234 235 234 231 230 234 238 239 240 242 245 246 244 240 237 234 232 231 231 231 233 236 241 246 251 257 264 269 275 279 284 288 293 299 304 309 314 318 320 321 323 324 326 328 328 328 328 328 328 329 330 331 332 333 334 334 334 333 333 333 332 332 331 331 331 331 330 329 328 327 327 326 327 327 328 328 328 329 328 328 329 329
231 232 233 234 235 234 232 231 235 238 237 237 241 246 247 244 239 235 233 232 232 231 232 233 237 241 246 252 258 264 270 275 279 283 288 293 299 305 310 315 318 320 321 323 325 327 328 328 328 328 328 329 329 330 331 333 333 333 333 333 333 333 333 332 331 331 331 331 331 330 329 328 327 326 326 326 327 327 328 328 329 329 329 329 329
230 232 233 234 234 233 230 230 234 236 235 235 239 243 246 245 240 234 231 231 231 231 232 234 237 242 247 252 258 264 270 274 278 282 287 294 300 306 311 316 318 320 321 323 325 327 328 328 328 328 328 329 330 331 332 333 333 333 333 333 333 333 332 332 331 331 331 331 330 330 329 328 327 326 326 326 327 327 328 329 329 329 330 330 330
231 232 233 234 234 231 229 230 233 232 230 231 235 240 244 244 239 233 230 230 231 231 231 233 237 242 247 253 259 265 270 274 278 282 287 294 301 307 312 317 319 320 322 324 326 327 327 328 328 329 329 330 330 331 332 333 333 333 333 333 333 333 332 332 332 331 331 331 330 330 329 328 327 326 326 326 327 328 329 329 330 330 331 331 331
233 233 235 235 234 233 233 234 232 229 227 230 236 242 247 247 240 232 228 228 229 229 230 233 237 243 249 254 260 266 270 274 278 283 289 296 303 308 314 317 319 320 322 325 326 327 327 328 328 329 329 330 331 332 333 333 333 333 333 333 333 333 332 332 332 331 331 331 330 330 330 329 327 327 327 327 328 329 330 330 331 332 332 332 333
234 236 237 235 234 234 236 234 230 227 228 232 238 244 248 247 240 232 227 227 227 228 230 233 238 244 250 255 261 267 271 274 278 284 291 298 304 310 315 318 319 321 323 325 326 327 328 328 328 329 330 331 332 333 333 333 333 333 333 333 333 333 332 332 332 332 331 331 331 331 330 329 328 328 328 329 329 331 332 332 333 333 333 334 336
233 235 236 234 233 234 234 230 226 224 227 231 237 244 246 245 238 231 226 225 226 227 229 233 239 244 251 256 262 267 271 275 279 286 294 300 306 311 316 318 319 321 324 326 327 328 328 328 329 329 330 332 333 333 333 334 334 333 333 333 333 333 333 333 333 332 332 332 332 331 330 330 330 330 330 331 332 333 334 334 334 334 335 337 339
232 235 235 233 233 233 232 227 223 223 226 231 237 243 246 244 238 231 226 226 226 227 229 233 239 244 251 257 263 268 271 275 281 289 296 301 307 312 316 317 319 322 325 327 327 328 328 328 329 330 331 332 333 334 334 334 334 334 333 333 334 334 334 334 333 333 333 333 333 332 331 332 332 333 333 334 335 336 337 336 336 337 339 341 344
231 235 235 234 233 233 229 223 220 222 226 231 237 243 246 243 237 230 226 226 226 227 229 234 239 245 251 257 263 267 270 275 283 291 297 302 308 313 315 317 319 323 326 327 328 328 328 329 330 331 332 333 334 334 335 335 334 334 334 334 335 335 335 335 335 334 334 334 334 333 333 334 335 336 337 338 338 338 339 339 339 342 344 347 352
232 235 235 233 232 229 224 219 218 220 225 230 236 244 247 243 234 228 225 225 226 227 229 234 239 246 252 258 262 266 270 276 284 292 297 303 309 312 314 317 320 324 327 328 328 328 329 329 331 332 333 333 334 335 336 335 335 335 335 336 336 337 337 336 336 336 336 335 335 336 337 338 339 340 340 341 341 341 342 343 345 347 351 356 4
232 236 235 232 228 224 220 218 218 221 226 232 240 248 250 242 232 226 224 224 225 226 229 235 240 247 253 257 260 264 270 277 286 292 298 304 309 312 314 317 321 325 328 328 328 328 329 331 332 332 333 334 335 336 336 336 335 336 336 337 338 338 338 338 338 338 338 338 338 339 341 342 342 342 343 344 345 346 347 348 350 353 358 8 20
Height
3065 3066 3066 3067 3067 3067 3066 3066 3065 3064 3063 3062 3062 3060 3058 3057 3056 3055 3054 3053 3052 3051 3050 3049 3048 3047 3046 3045 3044 3043 3041 3040 3039 3038 3037 3035 3033 3031 3029 3026 3024 3021 3019 3017 3014 3011 3007 3004 3000 2997 2994 2991 2988 2984 2981 2977 2973 2969 2964 2960 2956 2950 2945 2941 2936 2934 2933 2929 2923 2920 2916 2911 2907 2903 2899 2896 2893 2888 2883 2878 2873 2868 2863 2859 2855
3062 3062 3062 3063 3063 3063 3063 3062 3062 3061 3060 3059 3059 3057 3055 3054 3053 3053 3052 3051 3050 3049 3048 3047 3047 3045 3044 3043 3042 3041 3040 3039 3038 3037 3036 3034 3032 3030 3027 3025 3023 3020 3018 3016 3013 3009 3006 3003 2999 2996 2992 2989 2986 2982 2979 2975 2971 2966 2962 2958 2954 2948 2943 2938 2933 2929 2928 2926 2921 2917 2914 2909 2904 2901 2897 2893 2890 2886 2882 2877 2872 2866 2861 2856 2852
3058 3058 3058 3059 3060 3060 3059 3059 3059 3058 3057 3056 3055 3054 3052 3051 3051 3050 3050 3049 3048 3047 3046 3045 3045 3044 3043 3042 3041 3040 3038 3037 3036 3035 3034 3032 3030 3028 3026 3024 3022 3019 3017 3014 3011 3008 3005 3002 2998 2995 2991 2987 2984 2980 2976 2973 2968 2964 2960 2956 2952 2947 2942 2937 2932 2927 2924 2922 2919 2914 2910 2907 2902 2897 2894 2891 2887 2883 2879 2875 2870 2865 2860 2854 2850
3053 3053 3054 3055 3056 3056 3056 3056 3055 3054 3054 3053 3052 3051 3049 3049 3048 3048 3047 3046 3046 3045 3044 3043 3043 3042 3041 3041 3040 3038 3037 3036 3035 3034 3033 3031 3029 3027 3025 3023 3021 3018 3016 3013 3010 3007 3004 3001 2997 2994 2990 2986 2982 2978 2974 2970 2966 2962 2958 2954 2949 2945 2941 2935 2931 2926 2921 2918 2916 2912 2907 2903 2900 2895 2890 2887 2884 2880 2876 2872 2868 2864 2859 2853 2847
3049 3049 3050 3051 3052 3052 3052 3052 3052 3051 3051 3050 3049 3048 3046 3046 3046 3045 3045 3044 3043 3043 3042 3041 3041 3040 3040 3039 3038 3037 3036 3035 3034 3033 3031 3030 3028 3026 3024 3022 3019 3017 3015 3012 3009 3006 3003 3000 2996 2992 2989 2985 2980 2977 2973 2968 2964 2960 2956 2951 2947 2942 2938 2933 2928 2924 2919 2914 2912 2909 2905 2900 2897 2893 2888 2883 2879 2876 2873 2870 2865 2860 2856 2852 2846
3044 3045 3047 3047 3048 3048 3048 3049 3048 3048 3047 3047 3046 3044 3044 3043 3043 3043 3042 3042 3041 3040 3040 3039 3039 3038 3038 3037 3037 3035 3034 3033 3032 3031 3030 3028 3026 3024 3022 3020 3018 3015 3013 3010 3007 3004 3001 2998 2994 2990 2987 2983 2979 2975 2971 2967 2962 2958 2953 2949 2945 2940 2936 2931 2926 2922 2917 2913 2908 2905 2902 2897 2893 2889 2885 2880 2876 2871 2867 2866 2863 2858 2852 2848 2843
3040 3041 3043 3043 3044 3044 3045 3045 3044 3044 3044 3043 3042 3041 3041 3041 3041 3040 3040 3039 3039 3038 3038 3037 3037 3036 3036 3036 3035 3034 3033 3032 3031 3030 3028 3027 3024 3022 3020 3017 3015 3013 3011 3008 3004 3001 2998 2995 2992 2988 2984 2981 2977 2973 2969 2965 2961 2956 2951 2947 2942 2938 2933 2928 2924 2919 2915 2911 2906 2902 2898 2894 2890 2886 2882 2877 2873 2869 2863 2859 2857 2854 2850 2844 2838
3036 3037 3038 3040 3040 3041 3041 3041 3041 3041 3040 3040 3039 3038 3038 3038 3038 3037 3037 3036 3036 3036 3035 3035 3035 3035 3034 3034 3033 3032 3031 3030 3029 3028 3027 3025 3023 3020 3018 3015 3013 3011 3008 3005 3002 2999 2996 2993 2989 2986 2983 2979 2975 2971 2967 2963 2959 2954 2949 2944 2939 2935 2931 2926 2921 2916 2912 2907 2903 2899 2895 2891 2886 2882 2879 2874 2870 2866 2861 2854 2850 2848 2845 2841 2835
3032 3033 3034 3036 3036 3037 3037 3037 3037 3037 3037 3036 3035 3035 3035 3035 3035 3035 3034 3034 3034 3033 3033 3033 3033 3033 3033 3032 3031 3030 3030 3029 3028 3027 3025 3023 3021 3019 3016 3014 3012 3010 3007 3004 3000 2997 2993 2990 2987 2984 2981 2977 2973 2970 2966 2961 2957 2952 2947 2942 2937 2932 2928 2924 2919 2914 2909 2905 2900 2895 2892 2889 2883 2878 2874 2871 2866 2861 2857 2853 2847 2843 2840 2838 2834
3027 3029 3030 3032 3032 3033 3033 3034 3034 3033 3033 3032 3031 3031 3032 3032 3032 3032 3031 3031 3031 3031 3031 3031 3031 3031 3031 3030 3030 3029 3028 3027 3026 3025 3024 3022 3019 3017 3014 3012 3010 3008 3006 3002 2999 2995 2991 2988 2985 2982 2979 2975 2972 2968 2965 2960 2955 2950 2945 2940 2935 2929 2925 2921 2917 2912 2907 2903 2898 2892 2888 2886 2881 2875 2870 2867 2863 2858 2854 2849 2845 2840 2835 2831 2829
3023 3025 3026 3027 3028 3029 3030 3030 3030 3030 3029 3028 3028 3028 3029 3029 3029 3029 3028 3028 3029 3029 3029 3029 3029 3029 3029 3028 3028 3027 3026 3026 3025 3023 3021 3019 3017 3014 3012 3010 3008 3006 3004 3001 2998 2994 2991 2987 2983 2979 2976 2973 2970 2967 2963 2959 2954 2949 2944 2939 2933 2928 2923 2919 2914 2910 2905 2900 2896 2891 2884 2881 2878 2873 2867 2862 2859 2855 2851 2847 2842 2837 2831 2825 2821
3019 3021 3022 3023 3024 3025 3026 3026 3026 3026 3025 3025 3025 3025 3025 3025 3026 3025 3025 3026 3026 3026 3026 3026 3027 3027 3027 3026 3026 3025 3025 3024 3023 3021 3020 3017 3015 3012 3010 3008 3007 3005 3002 2999 2996 2993 2990 2986 2982 2978 2974 2971 2968 2965 2961 2957 2952 2947 2942 2937 2933 2928 2923 2918 2913 2908 2903 2898 2894 2890 2883 2878 2875 2871 2864 2859 2855 2852 2848 2844 2838 2833 2829 2822 2817
3014 3016 3018 3019 3020 3021 3022 3022 3022 3022 3021 3021 3021 3021 3022 3022 3022 3022 3023 3023 3023 3024 3024 3024 3024 3025 3025 3024 3024 3023 3023 3022 3021 3020 3018 3016 3013 3011 3009 3006 3005 3002 2999 2996 2993 2990 2987 2985 2981 2976 2972 2968 2965 2962 2959 2955 2951 2946 2941 2936 2932 2927 2922 2917 2912 2907 2902 2896 2892 2888 2883 2876 2872 2868 2863 2857 2853 2847 2842 2838 2832 2828 2825 2821 2815
3010 3012 3013 3015 3016 3017 3018 3018 3019 3018 3018 3017 3017 3017 3018 3018 3019 3019 3019 3020 3020 3021 3021 3022 3022 3022 3023 3022 3022 3021 3021 3020 3019 3018 3016 3014 3012 3009 3007 3005 3002 3000 2996 2993 2990 2987 2984 2981 2978 2974 2969 2965 2961 2958 2955 2952 2948 2944 2939 2935 2930 2925 2921 2916 2911 2906 2901 2896 2890 2886 2882 2876 2870 2866 2861 2855 2849 2843 2837 2832 2828 2824 2821 2819 2814
3005 3007 3009 3011 3012 3013 3014 3015 3015 3015 3014 3013 3013 3014 3014 3015 3015 3016 3017 3017 3018 3018 3019 3019 3020 3020 3020 3020 3020 3019 3019 3018 3017 3016 3014 3012 3010 3007 3005 3002 3000 2997 2993 2990 2986 2983 2980 2977 2974 2970 2966 2962 2958 2954 2951 2949 2945 2941 2937 2933 2928 2924 2919 2914 2909 2905 2899 2894 2889 2884 2879 2874 2869 2863 2858 2851 2846 2841 2835 2830 2825 2821 2817 2815 2812
3000 3003 3005 3007 3008 3009 3010 3011 3011 3011 3010 3010 3009 3010 3011 3011 3012 3013 3013 3014 3015 3016 3016 3017 3018 3018 3018 3018 3017 3017 3016 3015 3015 3013 3012 3010 3008 3005 3003 3000 2998 2994 2991 2987 2983 2980 2977 2974 2971 2968 2964 2960 2956 2951 2948 2945 2941 2937 2934 2930 2926 2921 2917 2913 2908 2903 2897 2892 2886 2881 2877 2871 2866 2861 2855 2849 2844 2839 2834 2829 2824 2818 2814 2810 2807
2996 2999 3001 3003 3004 3005 3006 3007 3007 3007 3006 3006 3006 3006 3007 3008 3009 3009 3010 3011 3012 3013 3014 3014 3015 3015 3015 3015 3015 3014 3014 3013 3012 3011 3010 3008 3006 3003 3001 2998 2995 2992 2989 2985 2981 2978 2975 2972 2969 2966 2962 2958 2954 2949 2945 2942 2938 2934 2930 2926 2923 2918 2914 2910 2906 2901 2896 2890 2885 2880 2875 2870 2864 2859 2853 2847 2842 2836 2831 2827 2821 2815 2810 2805 2801
2992 2995 2998 2999 3000 3001 3002 3002 3003 3002 3002 3002 3002 3002 3003 3004 3005 3006 3007 3008 3009 3010 3011 3012 3012 3013 3013 3013 3012 3012 3011 3011 3010 3009 3007 3006 3003 3001 2999 2996 2994 2991 2987 2983 2980 2976 2973 2970 2966 2963 2960 2956 2951 2947 2942 2938 2934 2930 2925 2922 2918 2915 2910 2906 2902 2898 2893 2888 2883 2878 2873 2868 2862 2857 2852 2846 2840 2835 2829 2824 2818 2813 2807 2802 2796
2989 2992 2994 2995 2996 2997 2998 2998 2998 2998 2998 2998 2998 2999 3000 3001 3002 3003 3004 3005 3006 3007 3008 3009 3009 3010 3010 3010 3010 3009 3009 3008 3007 3006 3005 3003 3001 2999 2997 2995 2992 2989 2986 2982 2979 2976 2972 2968 2965 2961 2958 2953 2949 2945 2940 2935 2931 2926 2921 2917 2914 2910 2906 2902 2897 2893 2889 2884 2879 2875 2870 2865 2860 2855 2850 2844 2839 2833 2827 2821 2815 2809 2804 2799 2794
2986 2988 2989 2990 2991 2992 2993 2994 2994 2994 2994 2993 2994 2995 2996 2997 2998 2999 3000 3001 3003 3004 3005 3006 3006 3007 3007 3007 3007 3007 3007 3006 3005 3004 3002 3000 2998 2997 2994 2992 2990 2988 2984 2981 2978 2975 2971 2967 2963 2959 2955 2951 2947 2942 2938 2933 2928 2923 2918 2914 2910 2906 2902 2898 2894 2889 2884 2880 2875 2870 2866 2861 2857 2852 2847 2841 2836 2830 2825 2818 2812 2807 2801 2796 2791
2981 2982 2983 2985 2986 2988 2989 2990 2990 2990 2989 2989 2990 2991 2992 2993 2994 2995 2996 2998 2999 3001 3002 3002 3003 3004 3004 3004 3004 3004 3004 3003 3002 3001 2999 2998 2996 2994 2992 2990 2988 2985 2982 2979 2976 2973 2970 2966 2962 2957 2953 2949 2945 2940 2935 2931 2926 2921 2916 2912 2907 2903 2899 2895 2890 2886 2881 2876 2872 2867 2862 2857 2853 2848 2843 2838 2833 2827 2822 2816 2810 2804 2798 2793 2788
2975 2977 2978 2980 2982 2984 2985 2986 2986 2986 2985 2985 2986 2987 2988 2990 2991 2992 2993 2994 2996 2997 2998 2999 3000 3001 3001 3001 3002 3002 3001 3000 3000 2998 2997 2995 2993 2991 2989 2987 2985 2983 2980 2977 2974 2970 2967 2964 2959 2955 2951 2947 2942 2938 2933 2929 2924 2920 2915 2910 2905 2901 2896 2892 2887 2883 2878 2873 2868 2864 2859 2854 2849 2844 2839 2834 2829 2824 2819 2813 2807 2802 2796 2791 2785
2970 2972 2974 2976 2978 2980 2981 2982 2982 2982 2982 2981 2982 2983 2985 2986 2987 2988 2989 2991 2992 2994 2995 2996 2997 2997 2998 2998 2999 2999 2998 2998 2997 2995 2994 2992 2990 2988 2986 2984 2982 2980 2977 2974 2971 2968 2964 2961 2957 2952 2948 2944 2940 2935 2931 2926 2922 2917 2913 2908 2903 2898 2893 2889 2884 2880 2875 2870 2865 2861 2856 2850 2845 2840 2835 2830 2826 2821 2816 2811 2806 2800 2795 2789 2784
2965 2967 2970 2972 2974 2976 2977 2977 2978 2978 2978 2978 2978 2979 2981 2982 2983 2985 2986 2987 2989 2991 2992 2993 2994 2994 2995 2995 2996 2996 2995 2995 2994 2992 2991 2989 2987 2985 2983 2981 2979 2977 2974 2971 2968 2965 2961 2957 2953 2949 2945 2941 2937 2933 2929 2925 2920 2915 2910 2905 2900 2895 2890 2886 2881 2876 2872 2867 2862 2857 2852 2847 2842 2836 2831 2826 2822 2818 2813 2808 2803 2798 2793 2787 2782
2961 2963 2966 2968 2970 2972 2972 2973 2974 2974 2974 2974 2975 2976 2977 2979 2980 2981 2983 2984 2986 2988 2989 2990 2991 2991 2992 2992 2993 2993 2992 2992 2991 2989 2988 2986 2984 2982 2980 2978 2976 2974 2971 2968 2965 2961 2957 2954 2950 2945 2942 2938 2934 2931 2927 2923 2918 2912 2907 2902 2897 2892 2887 2882 2878 2873 2868 2863 2858 2853 2849 2844 2838 2833 2828 2823 2818 2813 2809 2805 2800 2795 2791 2786 2781
2957 2960 2962 2965 2966 2967 2968 2969 2970 2970 2970 2971 2971 2973 2973 2975 2976 2978 2979 2981 2983 2984 2986 2987 2988 2988 2989 2989 2990 2990 2990 2989 2988 2987 2985 2983 2981 2980 2978 2976 2973 2971 2968 2965 2962 2958 2954 2950 2946 2942 2939 2935 2931 2928 2924 2920 2915 2910 2904 2899 2894 2889 2884 2879 2874 2870 2865 2860 2855 2850 2845 2840 2835 2830 2825 2819 2814 2809 2805 2801 2796 2792 2787 2783 2779
2954 2957 2959 2961 2962 2963 2965 2966 2966 2967 2967 2967 2968 2969 2970 2971 2973 2974 2976 2978 2980 2981 2983 2984 2985 2985 2985 2986 2986 2987 2987 2986 2985 2984 2983 2981 2979 2977 2975 2973 2970 2968 2965 2962 2959 2956 2952 2947 2943 2940 2936 2933 2929 2925 2921 2917 2913 2907 2902 2897 2891 2886 2881 2876 2872 2867 2862 2857 2852 2846 2842 2837 2831 2826 2821 2816 2811 2806 2801 2796 2792 2788 2784 2779 2776
2951 2953 2955 2957 2958 2960 2961 2962 2962 2963 2964 2964 2965 2965 2967 2968 2970 2972 2973 2975 2977 2978 2979 2981 2981 2982 2982 2983 2983 2983 2983 2983 2982 2981 2980 2978 2976 2974 2972 2970 2967 2964 2962 2959 2956 2953 2949 2945 2941 2937 2934 2930 2926 2922 2918 2915 2910 2905 2900 2894 2889 2884 2879 2874 2869 2864 2858 2853 2848 2843 2838 2833 2828 2823 2818 2813 2808 2803 2798 2793 2789 2784 2780 2776 2771
2947 2949 2951 2952 2954 2956 2957 2958 2959 2960 2960 2961 2961 2962 2964 2966 2967 2969 2970 2971 2973 2974 2976 2977 2978 2978 2979 2979 2980 2980 2980 2979 2979 2978 2976 2975 2974 2972 2969 2967 2964 2962 2959 2956 2953 2950 2946 2943 2939 2935 2931 2927 2923 2919 2915 2911 2907 2902 2897 2892 2886 2881 2875 2870 2866 2860 2855 2850 2844 2839 2834 2829 2824 2819 2814 2810 2805 2800 2795 2790 2786 2781 2777 2773 2768
2944 2945 2947 2949 2951 2952 2953 2954 2955 2956 2957 2958 2958 2959 2960 2962 2963 2964 2965 2967 2969 2970 2972 2974 2975 2975 2976 2976 2977 2977 2976 2976 2975 2974 2973 2972 2970 2968 2966 2964 2961 2959 2956 2953 2950 2946 2943 2939 2936 2931 2927 2924 2919 2915 2911 2907 2902 2898 2893 2888 2882 2877 2872 2867 2862 2857 2851 2846 2840 2835 2830 2825 2820 2815 2810 2806 2802 2797 2792 2787 2782 2778 2774 2770 2765
2940 2942 2944 2946 2948 2949 2950 2951 2952 2953 2954 2954 2955 2956 2957 2958 2960 2961 2962 2964 2966 2967 2969 2970 2971 2972 2973 2973 2974 2974 2973 2972 2972 2971 2970 2969 2967 2965 2963 2960 2958 2955 2953 2950 2946 2943 2939 2936 2932 2928 2924 2920 2916 2911 2907 2903 2898 2893 2889 2884 2879 2873 2868 2863 2858 2852 2847 2842 2836 2831 2826 2821 2816 2812 2807 2802 2798 2794 2789 2784 2780 2775 2771 2766 2762
2937 2939 2941 2943 2944 2945 2946 2947 2949 2949 2950 2951 2952 2952 2954 2955 2956 2958 2959 2961 2963 2965 2966 2967 2968 2969 2970 2970 2971 2971 2970 2970 2969 2968 2967 2965 2964 2962 2960 2957 2955 2952 2949 2946 2943 2939 2936 2932 2928 2924 2920 2916 2912 2908 2903 2899 2894 2889 2885 2880 2875 2870 2864 2859 2854 2849 2843 2838 2833 2827 2822 2817 2813 2808 2803 2799 2794 2790 2785 2781 2776 2772 2768 2764 2759
2935 2936 2938 2939 2940 2941 2943 2944 2945 2946 2947 2948 2948 2949 2951 2952 2953 2955 2956 2958 2959 2961 2962 2963 2965 2966 2967 2967 2968 2968 2967 2967 2966 2965 2964 2963 2961 2960 2957 2954 2951 2949 2946 2943 2940 2936 2932 2928 2925 2921 2917 2912 2908 2904 2900 2895 2891 2886 2881 2876 2871 2866 2861 2856 2850 2845 2840 2834 2829 2824 2819 2814 2809 2805 2800 2795 2791 2786 2782 2777 2773 2769 2765 2761 2757
2931 2933 2934 2935 2936 2938 2939 2940 2942 2943 2943 2944 2945 2946 2947 2949 2950 2951 2953 2954 2956 2958 2959 2961 2962 2963 2964 2964 2964 2964 2964 2964 2963 2962 2961 2960 2958 2957 2955 2952 2949 2946 2943 2940 2936 2933 2929 2925 2921 2917 2913 2909 2905 2900 2896 2892 2887 2883 2878 2873 2868 2862 2857 2852 2847 2842 2836 2831 2826 2820 2816 2810 2805 2801 2797 2792 2788 2783 2778 2774 2770 2765 2761 2757 2754
2927 2929 2930 2931 2932 2934 2935 2937 2938 2939 2940 2941 2942 2943 2944 2945 2947 2948 2949 2951 2953 2955 2956 2957 2958 2960 2960 2961 2961 2961 2961 2961 2960 2959 2957 2956 2955 2954 2952 2949 2947 2944 2940 2937 2933 2929 2926 2922 2918 2914 2910 2906 2901 2897 2893 2889 2884 2879 2874 2869 2864 2859 2853 2848 2843 2838 2833 2828 2822 2817 2812 2807 2802 2798 2793 2789 2784 2780 2775 2771 2766 2762 2758 2754 2750
2923 2924 2926 2927 2929 2931 2932 2933 2934 2935 2936 2937 2938 2939 2940 2942 2943 2944 2946 2948 2949 2951 2952 2954 2955 2956 2957 2958 2958 2958 2958 2958 2957 2956 2954 2953 2952 2951 2949 2946 2944 2941 2938 2934 2930 2926 2923 2919 2915 2911 2906 2902 2898 2893 2889 2885 2880 2875 2870 2865 2860 2855 2850 2844 2839 2834 2829 2824 2819 2814 2809 2804 2799 2794 2790 2785 2781 2776 2772 2767 2763 2759 2755 2751 2747
2920 2921 2923 2925 2927 2928 2929 2930 2931 2932 2932 2933 2934 2935 2936 2938 2939 2941 2943 2944 2946 2947 2949 2951 2952 2953 2954 2955 2955 2955 2955 2955 2954 2953 2952 2950 2949 2947 2945 2943 2941 2938 2935 2931 2927 2923 2920 2916 2911 2907 2903 2898 2894 2890 2886 2882 2877 2872 2867 2862 2857 2851 2846 2841 2836 2831 2826 2821 2816 2811 2806 2801 2796 2791 2786 2782 2778 2773 2769 2764 2760 2756 2752 2748 2744
2917 2918 2920 2922 2923 2924 2925 2926 2927 2928 2929 2930 2931 2932 2933 2935 2936 2937 2939 2941 2943 2944 2946 2947 2949 2950 2951 2952 2952 2953 2953 2952 2951 2950 2949 2947 2946 2944 2942 2940 2937 2934 2931 2928 2924 2920 2916 2912 2908 2904 2899 2895 2891 2887 2883 2878 2873 2868 2863 2858 2853 2848 2842 2837 2832 2827 2822 2817 2812 2807 2802 2797 2792 2787 2782 2778 2774 2770 2765 2761 2757 2753 2749 2745 2742
2913 2915 2916 2918 2919 2920 2921 2922 2923 2924 2925 2926 2928 2929 2930 2931 2933 2934 2936 2938 2939 2941 2942 2944 2946 2947 2948 2948 2949 2950 2950 2949 2948 2947 2946 2944 2943 2941 2938 2936 2933 2930 2927 2924 2920 2916 2913 2909 2905 2901 2896 2892 2888 2884 2879 2874 2869 2864 2859 2854 2849 2844 2839 2833 2828 2823 2818 2813 2808 2803 2798 2793 2788 2784 2779 2774 2770 2766 2762 2758 2753 2749 2746 2742 2739
2910 2911 2913 2914 2915 2916 2917 2918 2919 2920 2922 2923 2925 2926 2927 2928 2930 2931 2933 2934 2936 2937 2939 2940 2942 2944 2944 2945 2946 2947 2947 2946 2945 2944 2943 2942 2940 2937 2934 2932 2930 2927 2923 2920 2917 2913 2910 2906 2902 2897 2893 2889 2884 2880 2875 2870 2866 2861 2856 2850 2845 2840 2835 2830 2824 2819 2814 2810 2805 2800 2795 2790 2785 2780 2775 2771 2766 2762 2758 2754 2750 2746 2743 2740 2736
2907 2908 2909 2911 2912 2912 2913 2914 2916 2917 2919 2920 2921 2923 2924 2925 2926 2928 2929 2931 2932 2934 2935 2937 2939 2940 2941 2942 2943 2944 2944 2944 2943 2942 2941 2939 2937 2934 2931 2929 2926 2923 2920 2917 2913 2910 2906 2903 2899 2894 2890 2886 2881 2876 2872 2867 2862 2857 2852 2847 2841 2836 2831 2826 2821 2816 2811 2806 2801 2796 2791 2786 2781 2776 2771 2767 2763 2759 2755 2751 2747 2743 2740 2737 2734
2903 2904 2905 2907 2907 2908 2909 2911 2913 2914 2915 2917 2918 2920 2920 2921 2922 2924 2925 2927 2928 2930 2932 2934 2935 2936 2937 2939 2940 2941 2941 2941 2940 2939 2938 2936 2934 2932 2929 2926 2923 2920 2917 2913 2910 2907 2903 2900 2896 2891 2887 2882 2878 2873 2868 2863 2858 2853 2848 2843 2838 2832 2827 2822 2817 2812 2807 2802 2797 2793 2788 2783 2777 2772 2768 2763 2759 2755 2751 2747 2744 2740 2737 2734 2731
2899 2900 2901 2902 2903 2905 2907 2908 2909 2910 2912 2914 2916 2916 2917 2917 2918 2920 2921 2923 2925 2927 2929 2931 2932 2933 2934 2936 2937 2938 2938 2938 2937 2936 2935 2933 2931 2929 2927 2924 2921 2917 2914 2910 2907 2903 2900 2896 2893 2889 2884 2879 2875 2870 2865 2860 2855 2849 2844 2839 2834 2829 2823 2818 2813 2808 2803 2798 2793 2789 2784 2779 2774 2769 2764 2759 2755 2752 2748 2744 2741 2738 2734 2732 2729
2894 2895 2897 2898 2899 2901 2903 2904 2905 2907 2909 2910 2911 2912 2913 2914 2914 2916 2918 2920 2922 2924 2926 2927 2928 2930 2932 2933 2934 2935 2935 2935 2934 2934 2932 2931 2929 2926 2924 2921 2918 2914 2911 2907 2904 2900 2896 2893 2889 2886 2881 2876 2871 2867 2862 2856 2851 2846 2840 2835 2830 2825 2819 2814 2809 2803 2798 2794 2789 2785 2780 2775 2770 2765 2760 2756 2752 2748 2745 2741 2738 2735 2732 2729 2727
2890 2891 2893 2894 2896 2898 2899 2901 2902 2904 2905 2906 2907 2909 2909 2910 2911 2912 2914 2917 2919 2921 2923 2924 2925 2927 2929 2930 2931 2932 2932 2932 2931 2931 2929 2928 2926 2923 2921 2918 2915 2912 2908 2904 2901 2897 2893 2890 2886 2882 2878 2874 2869 2864 2859 2853 2848 2842 2837 2831 2826 2821 2815 2810 2805 2799 2794 2790 2785 2780 2776 2771 2766 2761 2756 2752 2748 2745 2741 2738 2735 2732 2729 2727 2725
2887 2888 2889 2891 2893 2894 2896 2898 2899 2900 2902 2903 2905 2906 2906 2907 2908 2910 2912 2914 2916 2918 2919 2921 2922 2924 2926 2927 2928 2929 2929 2929 2928 2928 2926 2925 2923 2920 2918 2915 2912 2909 2905 2902 2898 2894 2890 2887 2883 2879 2875 2870 2866 2861 2856 2850 2845 2839 2834 2828 2823 2817 2812 2806 2801 2796 2791 2786 2781 2776 2771 2767 2762 2757 2753 2749 2745 2741 2738 2735 2732 2729 2727 2725 2723
2884 2885 2886 2887 2889 2891 2892 2894 2895 2897 2899 2901 2902 2902 2903 2904 2905 2907 2909 2911 2913 2914 2916 2918 2920 2922 2923 2924 2925 2925 2926 2926 2925 2924 2923 2921 2919 2917 2915 2912 2909 2906 2902 2899 2895 2891 2888 2884 2880 2876 2872 2867 2863 2858 2853 2847 2842 2836 2831 2825 2819 2814 2808 2802 2797 2792 2787 2782 2777 2772 2767 2762 2758 2754 2749 2745 2742 2738 2735 2732 2729 2727 2725 2723 2721
2880 2881 2882 2884 2885 2887 2889 2890 2892 2894 2896 2898 2899 2899 2900 2901 2902 2904 2906 2908 2910 2911 2914 2916 2918 2919 2920 2921 2922 2922 2923 2923 2922 2921 2920 2918 2916 2914 2912 2909 2906 2903 2900 2896 2892 2889 2885 2881 2877 2873 2869 2864 2860 2855 2850 2844 2839 2833 2828 2822 2816 2810 2804 2799 2794 2788 2783 2778 2773 2768 2763 2759 2754 2750 2746 2742 2739 2736 2733 2730 2727 2725 2723 2721 2720
2876 2877 2879 2880 2882 2884 2886 2887 2889 2892 2893 2894 2895 2896 2897 2898 2899 2901 2903 2905 2907 2909 2911 2913 2915 2916 2917 2918 2919 2920 2920 2920 2919 2918 2917 2915 2914 2911 2909 2906 2903 2900 2897 2893 2890 2886 2883 2879 2875 2870 2866 2861 2857 2852 2847 2841 2836 2831 2825 2819 2813 2807 2802 2796 2790 2785 2780 2774 2769 2764 2760 2755 2751 2747 2743 2740 2736 2733 2730 2728 2725 2723 2722 2720 2719
2873 2874 2875 2877 2879 2880 2882 2884 2886 2888 2890 2891 2892 2893 2894 2895 2896 2898 2900 2902 2904 2906 2909 2911 2912 2914 2915 2916 2917 2917 2917 2917 2916 2915 2914 2913 2911 2909 2906 2903 2900 2897 2894 2891 2887 2884 2880 2876 2872 2868 2863 2859 2854 2849 2844 2839 2833 2828 2822 2816 2810 2804 2799 2793 2788 2782 2777 2771 2766 2761 2757 2752 2748 2744 2741 2737 2734 2731 2729 2726 2724 2722 2721 2719 2719
2870 2871 2872 2874 2875 2877 2879 2881 2883 2885 2887 2888 2890 2891 2891 2892 2893 2895 2897 2899 2902 2904 2906 2908 2910 2911 2913 2913 2914 2914 2914 2914 2914 2913 2911 2910 2908 2906 2903 2900 2898 2895 2892 2888 2885 2881 2878 2874 2869 2865 2861 2856 2852 2846 2841 2836 2831 2825 2819 2813 2807 2801 2796 2791 2785 2780 2774 2769 2763 2759 2754 2750 2746 2742 2739 2735 2732 2730 2727 2725 2723 2721 2720 2719 2719